| time (UTC) | temp F | wind direction | speed MPH | gust MPH | rain 1hr in | rain 24hr in | rain mn in | humidity % | barometer mb |
| 20260902193423 | 71 | 360 | 0.0 | 0.0 | 0.00 | 0.04 | 0.02 | 93 | 1040.8 |
| 20260902192325 | 71 | 360 | 0.0 | 0.0 | 0.00 | 0.04 | 0.02 | 92 | 1041.1 |
| 20260902191424 | 71 | 360 | 0.0 | 0.0 | 0.00 | 0.04 | 0.02 | 92 | 1041.1 |
| 20260902190523 | 71 | 360 | 0.0 | 0.0 | 0.00 | 0.04 | 0.02 | 92 | 1041.4 |
| 20260902185527 | 71 | 360 | 0.0 | 0.0 | 0.00 | 0.04 | 0.02 | 91 | 1041.4 |
| 20260902185425 | 71 | 360 | 0.0 | 0.0 | 0.00 | 0.04 | 0.02 | 90 | 1041.6 |
| 20260902184425 | 71 | 360 | 0.0 | 0.0 | 0.00 | 0.04 | 0.02 | 91 | 1041.6 |
| 20260902183524 | 71 | 360 | 0.0 | 0.0 | 0.00 | 0.04 | 0.02 | 91 | 1041.6 |
| 20260902182541 | 71 | 360 | 0.0 | 0.0 | 0.00 | 0.04 | 0.02 | 90 | 1041.8 |
| 20260902181523 | 71 | 360 | 0.0 | 0.0 | 0.00 | 0.04 | 0.02 | 90 | 1042.0 |
| 20260902180524 | 71 | 360 | 0.0 | 0.0 | 0.00 | 0.04 | 0.02 | 89 | 1041.8 |
| 20260902175523 | 71 | 360 | 0.0 | 0.0 | 0.00 | 0.04 | 0.02 | 89 | 1041.6 |
| 20260902173525 | 72 | 360 | 0.0 | 0.0 | 0.00 | 0.04 | 0.02 | 88 | 1041.7 |
| 20260902172524 | 72 | 360 | 0.0 | 0.0 | 0.00 | 0.04 | 0.02 | 88 | 1042.2 |
| 20260902172423 | 72 | 360 | 0.0 | 0.0 | 0.00 | 0.04 | 0.02 | 88 | 1042.2 |
| 20260902170425 | 72 | 360 | 0.0 | 0.0 | 0.00 | 0.04 | 0.02 | 86 | 1042.6 |
| 20260902165424 | 72 | 360 | 0.0 | 0.0 | 0.00 | 0.04 | 0.02 | 86 | 1042.8 |
| 20260902164423 | 72 | 360 | 0.0 | 0.0 | 0.01 | 0.04 | 0.02 | 87 | 1042.8 |
| 20260902163426 | 72 | 360 | 0.0 | 0.0 | 0.01 | 0.04 | 0.02 | 87 | 1042.6 |
| 20260902162427 | 72 | 360 | 0.0 | 0.0 | 0.01 | 0.04 | 0.02 | 86 | 1042.7 |
| 20260902161524 | 72 | 360 | 0.0 | 0.0 | 0.01 | 0.04 | 0.02 | 87 | 1042.4 |
| 20260902161425 | 72 | 360 | 0.0 | 0.0 | 0.01 | 0.04 | 0.02 | 87 | 1042.3 |
| 20260902160424 | 72 | 360 | 0.0 | 0.0 | 0.01 | 0.04 | 0.02 | 87 | 1042.3 |
| 20260902155424 | 71 | 360 | 0.0 | 0.0 | 0.02 | 0.04 | 0.01 | 87 | 1042.1 |
| 20260902154425 | 71 | 360 | 0.0 | 1.0 | 0.01 | 0.03 | 0.01 | 87 | 1042.3 |
| 20260902151524 | 71 | 360 | 0.0 | 0.0 | 0.01 | 0.03 | 0.01 | 88 | 1042.3 |
| 20260902150524 | 71 | 360 | 0.0 | 0.0 | 0.01 | 0.03 | 0.01 | 88 | 1042.3 |
| 20260902145524 | 70 | 360 | 0.0 | 0.0 | 0.00 | 0.02 | 0.00 | 89 | 1042.5 |
| 20260902144524 | 70 | 360 | 0.0 | 0.0 | 0.00 | 0.02 | 0.00 | 89 | 1042.6 |
| 20260902143623 | 70 | 360 | 0.0 | 0.0 | 0.00 | 0.02 | 0.00 | 89 | 1042.6 |
| 20260902142625 | 70 | 236 | 0.0 | 0.0 | 0.00 | 0.02 | 0.00 | 88 | 1042.3 |
| 20260902141624 | 70 | 225 | 0.0 | 0.0 | 0.00 | 0.02 | 0.00 | 89 | 1042.1 |
| 20260902140640 | 70 | 360 | 0.0 | 1.0 | 0.00 | 0.02 | 0.00 | 89 | 1042.3 |
| 20260902140523 | 70 | 360 | 0.0 | 0.0 | 0.00 | 0.02 | 0.00 | 90 | 1042.3 |
| 20260902135424 | 70 | 360 | 0.0 | 1.0 | 0.00 | 0.02 | 0.00 | 91 | 1042.2 |
| 20260902134523 | 70 | 360 | 0.0 | 0.0 | 0.00 | 0.02 | 0.00 | 91 | 1042.3 |
| 20260902133524 | 69 | 360 | 0.0 | 0.0 | 0.00 | 0.02 | 0.00 | 91 | 1042.2 |
| 20260902132524 | 69 | 315 | 0.0 | 0.0 | 0.00 | 0.02 | 0.00 | 92 | 1042.1 |
| 20260902130624 | 69 | 360 | 0.0 | 0.0 | 0.00 | 0.02 | 0.00 | 93 | 1041.8 |
| 20260902125623 | 69 | 315 | 0.0 | 0.0 | 0.00 | 0.02 | 0.00 | 93 | 1041.6 |
| 20260902124624 | 69 | 292 | 0.0 | 0.0 | 0.00 | 0.02 | 0.00 | 93 | 1041.8 |
| 20260902122625 | 68 | 270 | 0.0 | 0.0 | 0.00 | 0.02 | 0.00 | 94 | 1041.6 |
| 20260902121626 | 68 | 270 | 0.0 | 0.0 | 0.00 | 0.02 | 0.00 | 93 | 1041.5 |
| 20260902121524 | 68 | 270 | 0.0 | 0.0 | 0.00 | 0.02 | 0.00 | 94 | 1041.6 |
| 20260902120525 | 68 | 90 | 0.0 | 0.0 | 0.00 | 0.02 | 0.00 | 94 | 1041.5 |
| 20260902114523 | 68 | 360 | 0.0 | 0.0 | 0.00 | 0.02 | 0.00 | 95 | 1041.6 |
| 20260902113523 | 68 | 225 | 0.0 | 0.0 | 0.00 | 0.02 | 0.00 | 95 | 1041.5 |
| 20260902112524 | 68 | 225 | 0.0 | 0.0 | 0.00 | 0.02 | 0.00 | 95 | 1041.4 |
| 20260902110524 | 68 | 225 | 0.0 | 0.0 | 0.00 | 0.02 | 0.00 | 95 | 1041.5 |
| 20260902105524 | 68 | 360 | 0.0 | 0.0 | 0.00 | 0.02 | 0.00 | 95 | 1041.5 |
| 20260902104523 | 68 | 360 | 0.0 | 0.0 | 0.00 | 0.02 | 0.00 | 95 | 1041.3 |
| 20260902103525 | 68 | 360 | 0.0 | 0.0 | 0.00 | 0.02 | 0.00 | 95 | 1041.3 |
| 20260902103423 | 68 | 360 | 0.0 | 0.0 | 0.00 | 0.02 | 0.00 | 95 | 1041.1 |
| 20260902101425 | 68 | 360 | 0.0 | 0.0 | 0.00 | 0.03 | 0.00 | 94 | 1041.1 |
| 20260902100423 | 69 | 360 | 0.0 | 0.0 | 0.00 | 0.03 | 0.00 | 94 | 1041.2 |
| 20260902095424 | 69 | 360 | 0.0 | 0.0 | 0.00 | 0.03 | 0.00 | 94 | 1041.3 |
| 20260902095323 | 69 | 360 | 0.0 | 0.0 | 0.00 | 0.03 | 0.00 | 94 | 1041.3 |
| 20260902095224 | 69 | 360 | 0.0 | 0.0 | 0.00 | 0.03 | 0.00 | 94 | 1041.2 |
| 20260902092323 | 69 | 360 | 0.0 | 0.0 | 0.00 | 0.03 | 0.00 | 94 | 1040.9 |
| 20260902091324 | 69 | 360 | 0.0 | 0.0 | 0.00 | 0.03 | 0.00 | 94 | 1040.8 |
| 20260902090325 | 69 | 360 | 0.0 | 0.0 | 0.00 | 0.03 | 0.00 | 93 | 1040.6 |
| 20260902085324 | 69 | 360 | 0.0 | 0.0 | 0.00 | 0.03 | 0.00 | 93 | 1040.6 |
| 20260902083325 | 69 | 360 | 0.0 | 0.0 | 0.00 | 0.03 | 0.00 | 94 | 1040.4 |
| 20260902082327 | 69 | 360 | 0.0 | 0.0 | 0.00 | 0.03 | 0.00 | 93 | 1040.3 |
| 20260902081323 | 69 | 360 | 0.0 | 0.0 | 0.00 | 0.03 | 0.00 | 93 | 1040.2 |
| 20260902081225 | 69 | 360 | 0.0 | 0.0 | 0.00 | 0.03 | 0.00 | 94 | 1040.2 |
| 20260902081123 | 69 | 360 | 0.0 | 0.0 | 0.00 | 0.03 | 0.00 | 93 | 1040.2 |
| 20260902080125 | 69 | 360 | 0.0 | 0.0 | 0.00 | 0.03 | 0.00 | 94 | 1040.1 |
| 20260902075223 | 69 | 360 | 0.0 | 0.0 | 0.00 | 0.03 | 0.00 | 92 | 1040.0 |
| 20260902075124 | 69 | 360 | 0.0 | 0.0 | 0.00 | 0.03 | 0.00 | 92 | 1040.1 |
| 20260902073224 | 70 | 22 | 0.0 | 0.0 | 0.00 | 0.03 | 0.00 | 92 | 1039.9 |
| 20260902072226 | 70 | 22 | 0.0 | 0.0 | 0.00 | 0.03 | 0.00 | 93 | 1039.8 |
| 20260902072124 | 70 | 22 | 0.0 | 0.0 | 0.00 | 0.03 | 0.00 | 93 | 1039.8 |
| 20260902071126 | 70 | 360 | 0.0 | 2.0 | 0.00 | 0.03 | 0.00 | 93 | 1039.8 |
| 20260902070223 | 71 | 360 | 0.0 | 3.0 | 0.00 | 0.03 | 0.00 | 92 | 1039.9 |
| 20260902065223 | 71 | 360 | 0.0 | 1.0 | 0.00 | 0.03 | 0.00 | 93 | 1039.8 |
| 20260902064223 | 71 | 285 | 0.0 | 0.0 | 0.00 | 0.03 | 0.00 | 94 | 1039.7 |
| 20260902063222 | 71 | 45 | 0.0 | 1.0 | 0.00 | 0.03 | 0.00 | 93 | 1039.5 |
| 20260902062225 | 71 | 45 | 0.0 | 0.0 | 0.00 | 0.03 | 0.00 | 93 | 1039.5 |
| 20260902061223 | 71 | 90 | 0.0 | 0.0 | 0.00 | 0.03 | 0.00 | 94 | 1039.3 |
| 20260902060223 | 71 | 90 | 0.0 | 0.0 | 0.00 | 0.03 | 0.00 | 93 | 1039.4 |
| 20260902055123 | 71 | 90 | 0.0 | 0.0 | 0.00 | 0.03 | 0.00 | 94 | 1039.4 |
| 20260902054125 | 71 | 90 | 0.0 | 0.0 | 0.00 | 0.03 | 0.00 | 94 | 1039.5 |
| 20260902053223 | 71 | 90 | 0.0 | 0.0 | 0.00 | 0.03 | 0.00 | 94 | 1039.4 |
| 20260902052225 | 72 | 90 | 0.0 | 0.0 | 0.00 | 0.03 | 0.00 | 93 | 1039.5 |
| 20260902051323 | 72 | 90 | 0.0 | 0.0 | 0.00 | 0.03 | 0.00 | 93 | 1039.6 |
| 20260902050325 | 72 | 90 | 0.0 | 0.0 | 0.00 | 0.03 | 0.00 | 94 | 1039.7 |
| 20260902045323 | 72 | 90 | 0.0 | 0.0 | 0.00 | 0.03 | 0.00 | 93 | 1039.8 |
| 20260902045224 | 72 | 90 | 0.0 | 0.0 | 0.00 | 0.03 | 0.00 | 92 | 1039.8 |
| 20260902044224 | 72 | 90 | 0.0 | 0.0 | 0.00 | 0.03 | 0.00 | 93 | 1039.8 |
| 20260902043225 | 72 | 90 | 0.0 | 0.0 | 0.00 | 0.03 | 0.00 | 92 | 1039.9 |
| 20260902043125 | 72 | 90 | 0.0 | 0.0 | 0.00 | 0.03 | 0.00 | 93 | 1039.7 |
| 20260902042125 | 72 | 90 | 0.0 | 0.0 | 0.00 | 0.03 | 0.00 | 94 | 1039.6 |
| 20260902035129 | 73 | 90 | 0.0 | 0.0 | 0.00 | 0.03 | 0.03 | 93 | 1038.9 |
| 20260902033129 | 73 | 90 | 0.0 | 0.0 | 0.00 | 0.03 | 0.03 | 93 | 1038.8 |
| 20260902032228 | 73 | 90 | 0.0 | 0.0 | 0.00 | 0.03 | 0.03 | 92 | 1038.8 |
| 20260902031229 | 73 | 90 | 0.0 | 0.0 | 0.00 | 0.03 | 0.03 | 92 | 1038.7 |
| 20260902030229 | 73 | 90 | 0.0 | 0.0 | 0.00 | 0.03 | 0.03 | 92 | 1038.5 |
| 20260902030129 | 73 | 90 | 0.0 | 0.0 | 0.00 | 0.03 | 0.03 | 93 | 1038.5 |
| 20260902025145 | 73 | 90 | 0.0 | 0.0 | 0.00 | 0.03 | 0.03 | 92 | 1038.1 |
| 20260902024030 | 72 | 90 | 0.0 | 0.0 | 0.00 | 0.03 | 0.03 | 93 | 1038.1 |
| 20260902023029 | 72 | 90 | 0.0 | 0.0 | 0.00 | 0.03 | 0.03 | 91 | 1038.3 |
| 20260902022029 | 72 | 90 | 0.0 | 0.0 | 0.00 | 0.03 | 0.03 | 92 | 1038.3 |
| 20260902021029 | 72 | 90 | 0.0 | 0.0 | 0.00 | 0.03 | 0.03 | 92 | 1038.1 |
| 20260902015030 | 72 | 90 | 0.0 | 0.0 | 0.01 | 0.03 | 0.03 | 91 | 1038.8 |
| 20260902014029 | 73 | 90 | 0.0 | 0.0 | 0.01 | 0.03 | 0.03 | 91 | 1038.0 |
| 20260902013028 | 73 | 90 | 0.0 | 0.0 | 0.01 | 0.03 | 0.03 | 90 | 1037.5 |
| 20260902012929 | 73 | 90 | 0.0 | 0.0 | 0.02 | 0.03 | 0.03 | 89 | 1037.5 |
| 20260902011931 | 73 | 90 | 0.0 | 0.0 | 0.02 | 0.03 | 0.03 | 89 | 1036.9 |
| 20260902010931 | 74 | 90 | 0.0 | 0.0 | 0.02 | 0.03 | 0.03 | 86 | 1036.1 |
| 20260902010829 | 74 | 90 | 0.0 | 0.0 | 0.02 | 0.03 | 0.03 | 86 | 1035.9 |
| 20260902005829 | 74 | 90 | 0.0 | 0.0 | 0.01 | 0.02 | 0.02 | 85 | 1036.6 |
| 20260902004830 | 75 | 90 | 0.0 | 0.0 | 0.01 | 0.02 | 0.02 | 83 | 1036.1 |
| 20260902002928 | 78 | 135 | 1.0 | 3.0 | 0.00 | 0.01 | 0.01 | 78 | 1036.2 |
| 20260902001928 | 79 | 188 | 3.0 | 11.0 | 0.00 | 0.01 | 0.01 | 84 | 1036.3 |
| 20260902000928 | 80 | 157 | 0.0 | 0.0 | 0.00 | 0.01 | 0.01 | 83 | 1035.6 |
| 20260901235929 | 80 | 157 | 0.0 | 0.0 | 0.00 | 0.01 | 0.01 | 83 | 1035.1 |
| 20260901234028 | 80 | 157 | 0.0 | 0.0 | 0.00 | 0.01 | 0.01 | 81 | 1035.6 |
| 20260901232928 | 80 | 157 | 0.0 | 0.0 | 0.00 | 0.01 | 0.01 | 81 | 1035.1 |
| 20260901230929 | 81 | 157 | 0.0 | 0.0 | 0.00 | 0.01 | 0.01 | 79 | 1035.5 |
| 20260901225928 | 82 | 157 | 0.0 | 0.0 | 0.00 | 0.01 | 0.01 | 77 | 1035.2 |
| 20260901224930 | 82 | 157 | 0.0 | 0.0 | 0.00 | 0.01 | 0.01 | 76 | 1035.1 |
| 20260901223830 | 83 | 157 | 0.0 | 0.0 | 0.00 | 0.01 | 0.01 | 76 | 1035.2 |
| 20260901222828 | 84 | 157 | 0.0 | 0.0 | 0.00 | 0.01 | 0.01 | 75 | 1035.2 |
| 20260901222729 | 84 | 157 | 0.0 | 0.0 | 0.00 | 0.01 | 0.01 | 74 | 1035.1 |
| 20260901221729 | 84 | 157 | 0.0 | 0.0 | 0.00 | 0.01 | 0.01 | 74 | 1035.3 |
| 20260901215730 | 85 | 157 | 0.0 | 0.0 | 0.00 | 0.01 | 0.01 | 72 | 1035.2 |
| 20260901213827 | 86 | 157 | 0.0 | 0.0 | 0.00 | 0.01 | 0.01 | 71 | 1035.7 |
| 20260901213729 | 86 | 157 | 0.0 | 0.0 | 0.00 | 0.01 | 0.01 | 70 | 1035.6 |
| 20260901212731 | 86 | 157 | 0.0 | 1.0 | 0.00 | 0.01 | 0.01 | 69 | 1035.7 |
| 20260901212630 | 86 | 157 | 0.0 | 0.0 | 0.00 | 0.01 | 0.01 | 69 | 1035.7 |
| 20260901210628 | 87 | 180 | 0.0 | 0.0 | 0.00 | 0.01 | 0.01 | 67 | 1035.4 |
| 20260901210529 | 87 | 180 | 0.0 | 0.0 | 0.00 | 0.01 | 0.01 | 68 | 1035.4 |
| 20260901205547 | 88 | 180 | 0.0 | 0.0 | 0.00 | 0.01 | 0.01 | 66 | 1035.6 |
| 20260901204529 | 89 | 90 | 0.0 | 0.0 | 0.00 | 0.01 | 0.01 | 63 | 1035.6 |
| 20260901203528 | 90 | 155 | 0.0 | 0.0 | 0.00 | 0.01 | 0.01 | 63 | 1035.6 |
| 20260901202628 | 91 | 180 | 0.0 | 0.0 | 0.00 | 0.01 | 0.01 | 62 | 1035.6 |
| 20260901201727 | 92 | 180 | 0.0 | 0.0 | 0.00 | 0.01 | 0.01 | 60 | 1035.6 |
| 20260901201627 | 92 | 180 | 0.0 | 0.0 | 0.00 | 0.01 | 0.01 | 60 | 1035.7 |
| 20260901200629 | 92 | 222 | 0.0 | 0.0 | 0.00 | 0.01 | 0.01 | 60 | 1035.8 |
| 20260901195630 | 92 | 135 | 0.0 | 0.0 | 0.00 | 0.01 | 0.01 | 59 | 1035.7 |
| 20260901195530 | 92 | 135 | 0.0 | 0.0 | 0.00 | 0.01 | 0.01 | 59 | 1035.7 |